Showing default

RASSVET-3 11, 68370

Orbit data source: Space-Track

RASSVET-3 11, 68370 is a payload satellite owned by Byuro 1440 (CIS) in LEO that was launched on Mon, 23 Mar 2026 UTC via a SOYUZ-2-1B launch vehicle from the Plesetsk Missile And Space Complex (PKMTR). Payload-class satellites include a variety of spacecraft equipped with specific instruments for various scientific and technological missions. These include communications satellites like Starlink; space stations such as the ISS; scientific satellites like the Hubble; Earth observation satellites from companies like Planet Labs, Umbra, and HawkEye 360; GPS; miniature CubeSats for education and research; and military/defense satellites.

Loading next visibility...
Identifier
68370, 2026-061L
Orbit
LEO
Country
Flag of CISCIS
Related business
Manufacturer
Byuro 1440
Mission
Operational spacecraft
Bus & Motor
RASSVET-2, Unknown motor
Mass
~370 kg wet, ~370 kg dry
Launch date (UTC)
2026-03-23 (3 months ago)
Launch vehicle
SOYUZ-2-1B
Launch site
Plesetsk Missile And Space Complex (PKMTR)
Object type
Payload
Rocket body
Debris
Shape & HBR
Unknown shape, 14.5 m
Radar Cross Section
Large (>1 m²)

Expand to show TLE details & history
Last TLE update: 9 hours ago

TLE from 9 hours ago
0 RASSVET-3 11
1 68370U 26061L   26169.82021347  .00042493  00000-0  28824-3 0  9999
2 68370  82.2929  10.2591 0008441 159.5911 200.5691 15.74735580 13826
Epoch: 2026-06-18T19:41Z
TLE epoch observation values (Epoch: 2026-06-18T19:41:06.443Z)
Latitude
-0.00013°
Longitude
167.92418°
Altitude
353.854 km
Speed
7.694 km/s
True Right ascension
00h 41m 02s
True Declination
0° 00' 00"
Sunlit
Object was in daylight at epoch
Visualization orbit readout
Latitude
Unknown
Longitude
Unknown
Altitude
Unknown
Speed
Unknown
Apparent Right ascension
Unknown
Apparent Declination
Unknown
Sunlit
N/A
Visualization observer readout
Local Sidereal Time
15:06:32
Azimuth
Unknown
Elevation
Unknown
Doppler factor
Unknown
Orbital elements
Apogee altitude
347.963 km
Perigee altitude
336.618 km
Semi-major axis
6,720.427 km
Eccentricity
0.00084
Inclination
82.2929°
RAAN
10.2591°
Arg. of periapsis
159.5911°
True anomaly
200.53515°
Mean anomaly
200.5691°
Eccentric anomaly
200.55212°
Mean motion
3.93956 °/min
Orbital period
91.38 mins
BSTAR
0.00028824
Loading maneuver chart data...
Computing Atmospheric mass density...
Loading historical data...
Loading historical data...
Loading historical data...
Loading historical data...
Loading historical data...
Loading historical data...
Loading historical data...

Documentation

Showing up to 5 results
|